Medicine Lodge, KS

5:02 AM CST on December 13, 2019 (GMT -0600)
Medicine Lodge

Weather History for KP28 - October, 2019

Change the Weather History Date:

Friday, October 18, 2019

  Actual Average Record
Temperature  
Mean Temperature 65 °F 58 °F  
Max Temperature 80 °F 70 °F 92 °F (1943)
Min Temperature 49 °F 45 °F 23 °F (1948)
Degree Days  
Heating Degree Days 0 8  
Month to date heating degree days 129 102  
Since 1 July heating degree days 129 136  
Cooling Degree Days 0 1  
Month to date cooling degree days 23 34  
Year to date cooling degree days 1837 1765  
Growing Degree Days 14 (Base 50)    
Moisture  
Dew Point 43 °F    
Average Humidity 58    
Maximum Humidity 80    
Minimum Humidity 35    
Precipitation  
Precipitation 0.00 in 0.11 in 1.69 in (1965)
Month to date precipitation 1.76 1.76  
Year to date precipitation 30.34 24.21  
Snow  
Snow 0.00 in 0.00 in - ()
Month to date snowfall 0.0 0.0  
Since 1 July snowfall 0.0 0.0  
Since 1 September snowfall 0.0 0.0  
Snow Depth 0.00 in    
Sea Level Pressure  
Sea Level Pressure 29.63 in    
Wind  
Wind Speed 13 mph (SSE)    
Max Wind Speed 28 mph    
Max Gust Speed 40 mph    
T = Trace of Precipitation, MM = Missing Value Source: NWS Daily Summary

Daily Weather History Graph

Daily Weather History Graph

Search for Another Location

Airport or City:

Astronomy

Oct. 18, 2019 Rise Set
Actual Time 7:44 AM CDT 6:53 PM CDT
Civil Twilight 7:18 AM CDT 7:19 PM CDT
Nautical Twilight 6:48 AM CDT 7:50 PM CDT
Astronomical Twilight 6:18 AM CDT 8:20 PM CDT
Moon 10:16 PM CDT (10/18) 12:14 PM CDT (10/18)
Length of Visible Light 12h 01m
Length of Day
11h 08m
Waning Gibbous, 78% of the Moon is Illuminated
Oct 18
Waning Gibbous
Oct 21
Last Quarter
Oct 27
New
Nov 4
First Quarter
Nov 12
Full

Hourly Weather History & Observations

Time (CDT) Temp. Dew Point Humidity Pressure Visibility Wind Dir Wind Speed Gust Speed Precip Events Conditions
12:56 AM 57.0 °F 39.0 °F 51% 29.74 in - SSE 10.4 mph 18.4 mph N/A   Unknown
1:56 AM 55.9 °F 39.9 °F 55% 29.73 in - SE 8.1 mph 17.3 mph N/A   Unknown
2:56 AM 54.0 °F 41.0 °F 62% 29.74 in - SE 9.2 mph - N/A   Unknown
3:56 AM 54.0 °F 41.0 °F 62% 29.72 in - SE 11.5 mph - N/A   Unknown
4:56 AM 53.1 °F 41.0 °F 64% 29.70 in - SE 12.7 mph - N/A   Unknown
5:56 AM 51.1 °F 41.0 °F 68% 29.71 in - SE 12.7 mph - N/A   Unknown
6:56 AM 50.0 °F 42.1 °F 74% 29.72 in - ESE 9.2 mph - N/A   Unknown
7:56 AM 48.9 °F 42.1 °F 77% 29.71 in - ESE 9.2 mph - N/A   Unknown
8:56 AM 51.1 °F 42.1 °F 71% 29.71 in - SE 11.5 mph - N/A   Unknown
9:56 AM 57.0 °F 42.1 °F 57% 29.71 in - SSE 8.1 mph 19.6 mph N/A   Unknown
10:56 AM 61.0 °F 43.0 °F 52% 29.69 in - SSE 12.7 mph 24.2 mph N/A   Unknown
11:56 AM 66.0 °F 45.0 °F 47% 29.66 in - SSE 10.4 mph 24.2 mph N/A   Unknown
12:56 PM 72.0 °F 46.9 °F 41% 29.61 in - SSE 16.1 mph 29.9 mph N/A   Unknown
1:56 PM 75.9 °F 50.0 °F 40% 29.54 in - South 27.6 mph 39.1 mph N/A   Unknown
2:56 PM 79.0 °F 50.0 °F 36% 29.53 in - South 21.9 mph 39.1 mph N/A   Unknown
3:56 PM 80.1 °F 50.0 °F 35% 29.52 in - SSE 19.6 mph 38.0 mph N/A   Unknown
4:56 PM 79.0 °F 48.9 °F 35% 29.52 in - SSE 17.3 mph 36.8 mph N/A   Unknown
5:56 PM 77.0 °F 48.0 °F 36% 29.52 in - South 23.0 mph 38.0 mph N/A   Unknown
6:56 PM 72.0 °F 46.9 °F 41% 29.52 in - SSE 15.0 mph 29.9 mph N/A   Unknown
7:56 PM 69.1 °F 42.1 °F 38% 29.55 in - SSE 13.8 mph 25.3 mph N/A   Unknown
8:56 PM 66.0 °F 39.9 °F 38% 29.56 in - SSE 11.5 mph 23.0 mph N/A   Unknown
9:56 PM 64.0 °F 41.0 °F 43% 29.56 in - SSE 10.4 mph 24.2 mph N/A   Unknown
10:56 PM 63.0 °F 39.9 °F 43% 29.59 in - SE 9.2 mph 19.6 mph N/A   Unknown
11:56 PM 63.0 °F 41.0 °F 45% 29.63 in - ESE 5.8 mph - N/A   Unknown